Simultaneous Nadir Overpasses (SNOs) Predictions

Prediction of SNOs between AQUA and METOP-B Satellite Orbit:

Table of predicted SNOs for the next 14.0 days since TLE Epoch: 10/10/2013
Index Date (AQUA) Time (AQUA) Lat,Lon (AQUA) SZA (AQUA ) Date (METOP-B) Time (METOP-B) Lat,Lon (METOP-B) SZA (METOP-B ) Distance(km) Time Diff (sec)
1 10/10/2013 19:07:16 73.69,-112.29 80.53 10/10/2013 19:06:24 73.71,-112.34 80.55 2.84 52
2 10/10/2013 19:56:43 -73.77, 55.17 99.38 10/10/2013 19:57:04 -73.75, 55.09 99.39 2.95 21
3 10/10/2013 20:46:25 74.51,-138.91 81.41 10/10/2013 20:47:30 74.47,-135.78 81.34 93.21 65
4 10/13/2013 14:41:28 73.74, -45.95 81.63 10/13/2013 14:40:44 73.71, -45.93 81.61 2.94 44
5 10/13/2013 15:30:55 -73.81, 121.52 98.28 10/13/2013 15:31:23 -73.81, 121.63 98.29 3.57 28
6 10/16/2013 10:15:39 73.71, 20.56 82.65 10/16/2013 10:15:05 73.71, 20.48 82.65 2.59 34
7 10/16/2013 11:05:06 -73.79,-171.97 97.27 10/16/2013 11:05:44 -73.81,-171.96 97.25 2.24 38
8 10/19/2013 05:49:51 73.77, 86.89 83.73 10/19/2013 05:49:25 73.75, 86.98 83.71 3.55 26
9 10/19/2013 06:39:17 -73.79,-105.51 96.24 10/19/2013 06:40:05 -73.80,-105.56 96.23 2.00 48
10 10/22/2013 00:34:25 -73.30, -13.29 95.76 10/22/2013 00:33:16 -73.21, -15.15 95.83 60.27 69
11 10/22/2013 01:24:01 73.75, 153.39 84.71 10/22/2013 01:23:46 73.73, 153.36 84.70 2.11 15
12 10/22/2013 02:13:27 -73.82, -39.12 95.21 10/22/2013 02:14:24 -73.84, -39.06 95.19 3.02 57




NCC Satellite Simultaneous Nadir Overpasses (SNOs) Prediction Service
